OneWeb SL0567

operational
NORAD ID: 55147 Int'l Des: 2023-004 Owner: ONEWEBN Country: UK Constellation: oneweb
LEOCIRCULARPOLARONEWEB_TYPE

OneWeb SL0567について

説明を読み込み中...

リアルタイム位置

3D地球を読み込み中...

次回通過

高度履歴

Altitude vs Time

uPlot chart will show altitude changes over time

軌道要素

1 55147U 23004H 25351.10970995 .00000038 00000-0 64036-4 0 9991
2 55147 87.9169 11.6459 0001474 82.8004 277.3296 13.18686278145701
Epoch: Dec 17, 2025 • Age: 15 hours

現在のステータス

高度 1192.5 km
速度 7.26 km/s
衛星直下点 28.03°N, 25.9°E
打ち上げ日 Jan 10, 2023
運用期間 2.9 years
タイプ internet

技術仕様

分類 Payload
質量 148.00 kg
乾燥質量 140.00 kg
総質量 148.00 kg
長さ 1.30 m
直径 1.00 m
スパン 5.00 m
形状 Trapezoid+2 pan
製造者 ONEWUS
バスタイプ ARROW
フェーズステータス In Orbit
所有者/国 ONEWEBN/UK

大規模コンステレーション

Loading constellations...